Regional Weather Roundup
Issued by NWS

Home | Current Version | Previous Version | Text Only | Print | Product List | Glossary On
Versions: 1 2 3 4 5 6 7 8 9 10 11 12 13 14 15 16 17 18 19 20 21 22 23 24 25 26 27 28 29 30 31 32 33 34 35 36 37 38 39 40 41 42 43 44 45 46 47 48 49 50
000
ASUS42 KKEY 200210
RWRKEY

FLORIDA REGIONAL WEATHER ROUNDUP FOR THE FLORIDA KEYS
NATIONAL WEATHER SERVICE KEY WEST FLORIDA
900 PM EST THU JAN 19 2017

...SOUTH FLORIDA AND THE KEYS...

CITY           SKY/WX    TMP DP  RH WIND       PRES   REMARKS
FORT MYERS     CLEAR     67  61  81 S5        29.99S
SW REGIONAL AP CLEAR     66  59  78 S5        29.99F
NAPLES         CLEAR     67  63  87 SE3       29.99F
MIAMI          PTCLDY    73  64  73 VRB5      30.02S
WEST KENDALL   PTCLDY    70  63  78 CALM      30.02S
HOMESTEAD      PTCLDY    65  65 100 CALM      30.01S
MARATHON       PTCLDY    77  61  57 SE6       30.01F
BOCA CHICA NAS CLEAR     72  59  63 SE10      30.02R
KEY WEST INTL  CLEAR     74  61  63 SE12      30.02R

...INTERNATIONAL WEATHER...

CITY           SKY/WX    TMP DP  RH WIND       PRES   REMARKS
NASSAU BAHAMAS PTCLDY    68  63  83 CALM      30.04R
CANCUN MEXICO  PTCLDY    77  70  78 SE9       29.96R
COZUMEL MEXICO CLEAR     73  70  88 SE3       29.95R

ADJACENT COASTAL WATERS...

STATION/POSITION TIME  SKY/WX   TEMP    WIND        PRES    WAVE
                                AIR SEA DIR/SP/G            HT/PER
                 (UTC)          (F)     (DEG/KT/KT) (MB)    (FT/S)
PULASKI SHOAL LI 0200            75     110/ 12/ 13 1015.8F
SAND KEY         0150            74     140/ 11/ 15 1017.0R
LONG KEY         0100            74 75  130/  6/  7 1016.7R
MOLASSES REEF    NOT AVBL
FOWEY ROCKS      0200            74 74  160/ 12/ 12 1017.0F

$$



USA.gov is the U.S. government's official web portal to all federal, state and local government web resources and services.